STARLINK-2516 (48283 NORAD) Tracking and Keplerian Element Data

This shows tracking and keplerian element data for the satellite.

Feedback or suggestion? Click here.




ElementValue
Catalog48283
NameSTARLINK-2516
Epoch Orbit197
Epoch Day170.58334491
Epoch Year2021
RAAN273.4204
Inclination53.0512
Eccentricity0.0001398
Argument of Perigee50.2125
Mean Anonmoly264.8836
Mean Motion15.73213643
Decay Rate-1.004E-05
L11 48283U 21036H 21170.58334491 -.00001004 00000-0 -27312-5 0 9992
L22 48283 53.0512 273.4204 0001398 50.2125 264.8836 15.73213643 1970

Live tracking and technical data element details for STARLINK-2516 (NORAD 48283). STARLINK-2516 can be tracked NOW for your location showing map with azimuth and elevation plus other details from your city location.

Track the satellite on the map from your city or location and see movement details for azimuth, elevation, latitude, longitude, range, height, and movement on the map or in text.







IsCatalogInMostPopularTable: catalog: 48283, numindb: 23
Update: records affected: 1



GetName: 48283 STARLINK-2516

Hit Count: updated at: Mon, 21 Jun 2021 03:27:25 GMT